Weather History for Chehalis, WA

Change the Weather History Date:

Friday, January 18, 2013

  Actual Average (KOLM) Record (KOLM)
Temperature  
Mean Temperature 38 °F 40 °F  
Max Temperature 48 °F 46 °F 60 °F (2005)
Min Temperature 28 °F 34 °F 13 °F (1950)
Degree Days  
Heating Degree Days 27 25  
Month to date heating degree days 460  
Since 1 July heating degree days 2730  
Cooling Degree Days 0 0  
Month to date cooling degree days 0  
Year to date cooling degree days 0  
Moisture  
Dew Point 32 °F    
Average Humidity 92    
Maximum Humidity 100    
Minimum Humidity 66    
Precipitation  
Precipitation 0.01 in 0.27 in 3.23 in (1986)
Month to date precipitation 4.70  
Year to date precipitation 4.70  
Sea Level Pressure  
Sea Level Pressure 30.30 in    
Wind  
Wind Speed 6 mph (West)    
Max Wind Speed 10 mph    
Max Gust Speed -    
Visibility 6 miles    
Events Fog    
T = Trace of Precipitation, MM = Missing Value Source: NWS Daily Summary

Daily Weather History Graph

Daily Weather History Graph

Search for Another Location

Airport:

Trip Planner

Search our weather history database for the weather conditions in past years. The results will help you decide how hot, cold, wet, or windy it might be!

Date:

Astronomy

Jan. 18, 2013 Rise Set
Actual Time 7:49 AM PST 4:55 PM PST
Civil Twilight 7:16 AM PST 5:29 PM PST
Nautical Twilight 6:38 AM PST 6:06 PM PST
Astronomical Twilight 6:02 AM PST 6:42 PM PST
Moon 11:00 AM PST (1/18) 12:20 AM PST (1/18)
Length of Visible Light 10h 13m
Length of Day
9h 05m
Waxing Crescent, 48% of the Moon is Illuminated
Jan 18
Waxing Crescent
Jan 18
First Quarter
Jan 26
Full
Feb 3
Last Quarter
Feb 9
New

Hourly Weather History & Observations

Time (PST) Temp. Windchill Dew Point Humidity Pressure Visibility Wind Dir Wind Speed Gust Speed Precip Events Conditions
12:15 AM 32.0 °F 27.5 °F 30.2 °F 93% 30.32 in 0.5 mi South 4.6 mph - N/A Fog Light Freezing Fog
12:35 AM 32.0 °F 26.4 °F 30.2 °F 93% 30.32 in 0.5 mi South 5.8 mph - N/A Fog Light Freezing Fog
12:55 AM 30.2 °F 24.3 °F 30.2 °F 100% 30.32 in 0.8 mi South 5.8 mph - N/A   Overcast
1:15 AM 30.2 °F 24.3 °F 30.2 °F 100% 30.32 in 0.8 mi South 5.8 mph - N/A   Overcast
1:35 AM 30.2 °F 23.4 °F 30.2 °F 100% 30.32 in 1.2 mi South 6.9 mph - N/A   Overcast
1:55 AM 30.2 °F 23.4 °F 30.2 °F 100% 30.32 in 1.2 mi SSW 6.9 mph - N/A   Overcast
2:15 AM 30.2 °F 23.4 °F 28.4 °F 93% 30.32 in 7.0 mi SSW 6.9 mph - N/A   Overcast
2:35 AM 30.2 °F 24.3 °F 28.4 °F 93% 30.31 in 10.0 mi SSW 5.8 mph - N/A   Overcast
2:55 AM 28.4 °F 21.2 °F 28.4 °F 100% 30.31 in 10.0 mi SSW 6.9 mph - N/A   Scattered Clouds
3:15 AM 28.4 °F 22.2 °F 28.4 °F 100% 30.31 in 1.8 mi SW 5.8 mph - N/A   Mostly Cloudy
3:35 AM 28.4 °F 22.2 °F 28.4 °F 100% 30.30 in 0.5 mi SW 5.8 mph - N/A Fog Light Freezing Fog
3:55 AM 28.4 °F 21.2 °F 28.4 °F 100% 30.30 in 0.5 mi SW 6.9 mph - N/A Fog Light Freezing Fog
4:15 AM 28.4 °F 21.2 °F 28.4 °F 100% 30.29 in 1.0 mi SW 6.9 mph - N/A   Overcast
4:35 AM 28.4 °F 21.2 °F 28.4 °F 100% 30.29 in 0.8 mi SW 6.9 mph - N/A   Overcast
4:55 AM 28.4 °F 21.2 °F 28.4 °F 100% 30.29 in 1.5 mi SW 6.9 mph - N/A   Overcast
5:15 AM 28.4 °F 21.2 °F 28.4 °F 100% 30.28 in 2.0 mi SW 6.9 mph - N/A   Overcast
5:35 AM 28.4 °F 22.2 °F 28.4 °F 100% 30.28 in 9.0 mi SW 5.8 mph - N/A   Mostly Cloudy
5:55 AM 28.4 °F 22.2 °F 28.4 °F 100% 30.28 in 10.0 mi SW 5.8 mph - N/A   Partly Cloudy
6:15 AM 28.4 °F 22.2 °F 26.6 °F 93% 30.28 in 9.0 mi SW 5.8 mph - N/A   Partly Cloudy
6:35 AM 28.4 °F 21.2 °F 26.6 °F 93% 30.28 in 9.0 mi SW 6.9 mph - N/A   Clear
6:55 AM 28.4 °F 20.4 °F 26.6 °F 93% 30.28 in 10.0 mi SW 8.1 mph - N/A   Clear
7:15 AM 28.4 °F 20.4 °F 28.4 °F 100% 30.28 in 10.0 mi SW 8.1 mph - N/A   Clear
7:35 AM 28.4 °F 22.2 °F 26.6 °F 93% 30.29 in 10.0 mi SW 5.8 mph - N/A   Clear
7:55 AM 28.4 °F 21.2 °F 26.6 °F 93% 30.29 in 10.0 mi SW 6.9 mph - N/A   Clear
8:15 AM 28.4 °F 22.2 °F 26.6 °F 93% 30.30 in 10.0 mi SW 5.8 mph - N/A   Clear
8:35 AM 28.4 °F 22.2 °F 26.6 °F 93% 30.30 in 10.0 mi SW 5.8 mph - N/A   Clear
8:55 AM 28.4 °F 22.2 °F 28.4 °F 100% 30.30 in 10.0 mi SW 5.8 mph - N/A   Clear
9:15 AM 30.2 °F 25.4 °F 28.4 °F 93% 30.31 in 10.0 mi SSW 4.6 mph - N/A   Clear
9:35 AM 32.0 °F 27.5 °F 28.4 °F 87% 30.31 in 10.0 mi SW 4.6 mph - N/A   Clear
9:55 AM 32.0 °F 25.6 °F 30.2 °F 93% 30.31 in 10.0 mi SW 6.9 mph - N/A   Clear
10:15 AM 32.0 °F 26.4 °F 30.2 °F 93% 30.31 in 10.0 mi SW 5.8 mph - N/A   Clear
10:35 AM 32.0 °F 27.5 °F 32.0 °F 100% 30.31 in 10.0 mi SW 4.6 mph - N/A   Clear
10:55 AM 35.6 °F 31.7 °F 32.0 °F 87% 30.31 in 10.0 mi WSW 4.6 mph - 0.01 in   Clear
11:15 AM 35.6 °F 32.8 °F 32.0 °F 87% 30.31 in 10.0 mi WSW 3.5 mph - N/A   Clear
11:35 AM 37.4 °F 34.9 °F 33.8 °F 87% 30.31 in 10.0 mi SW 3.5 mph - N/A   Clear
11:55 AM 39.2 °F 37.0 °F 35.6 °F 87% 30.30 in 10.0 mi WSW 3.5 mph - N/A   Clear
12:15 PM 41.0 °F 39.0 °F 35.6 °F 81% 30.30 in 10.0 mi West 3.5 mph - N/A   Clear
12:35 PM 41.0 °F 39.0 °F 35.6 °F 81% 30.29 in 10.0 mi WSW 3.5 mph - N/A   Clear
12:55 PM 42.8 °F 40.1 °F 37.4 °F 81% 30.29 in 10.0 mi WSW 4.6 mph - N/A   Clear
1:15 PM 44.6 °F 43.1 °F 37.4 °F 76% 30.28 in 10.0 mi WSW 3.5 mph - N/A   Clear
1:35 PM 46.4 °F 45.2 °F 37.4 °F 71% 30.28 in 10.0 mi SW 3.5 mph - N/A   Clear
1:55 PM 46.4 °F 45.2 °F 37.4 °F 71% 30.27 in 10.0 mi WSW 3.5 mph - N/A   Clear
2:15 PM 48.2 °F - 39.2 °F 71% 30.27 in 10.0 mi West 3.5 mph - N/A   Clear
2:35 PM 48.2 °F - 39.2 °F 71% 30.28 in 10.0 mi North 3.5 mph - N/A   Clear
2:55 PM 48.2 °F - 37.4 °F 66% 30.28 in 10.0 mi Calm Calm - N/A   Clear
3:15 PM 46.4 °F 43.5 °F 39.2 °F 76% 30.28 in 10.0 mi North 5.8 mph - N/A   Clear
3:35 PM 44.6 °F 41.4 °F 39.2 °F 81% 30.28 in 10.0 mi North 5.8 mph - N/A   Clear
3:55 PM 41.0 °F 38.0 °F 37.4 °F 87% 30.28 in 10.0 mi North 4.6 mph - N/A   Clear
4:15 PM 41.0 °F 39.0 °F 37.4 °F 87% 30.29 in 10.0 mi North 3.5 mph - N/A   Clear
4:35 PM 39.2 °F 35.0 °F 37.4 °F 93% 30.29 in 10.0 mi North 5.8 mph - N/A   Clear
4:55 PM 37.4 °F 32.8 °F 35.6 °F 93% 30.29 in 10.0 mi North 5.8 mph - N/A   Clear
5:15 PM 35.6 °F 29.9 °F 33.8 °F 93% 30.29 in 10.0 mi North 6.9 mph - N/A   Clear
5:35 PM 35.6 °F 29.2 °F 33.8 °F 93% 30.30 in 9.0 mi North 8.1 mph - N/A   Clear
5:55 PM 35.6 °F 30.7 °F 32.0 °F 87% 30.30 in 9.0 mi North 5.8 mph - N/A   Clear
6:15 PM 33.8 °F 28.6 °F 32.0 °F 93% 30.31 in 5.0 mi North 5.8 mph - N/A   Scattered Clouds
6:35 PM 35.6 °F 29.9 °F 33.8 °F 93% 30.31 in 7.0 mi North 6.9 mph - N/A   Overcast
6:55 PM 35.6 °F 30.7 °F 33.8 °F 93% 30.31 in 6.0 mi North 5.8 mph - N/A   Overcast
7:15 PM 35.6 °F 31.7 °F 33.8 °F 93% 30.32 in 4.0 mi North 4.6 mph - N/A   Overcast
7:35 PM 35.6 °F 31.7 °F 33.8 °F 93% 30.32 in 2.5 mi North 4.6 mph - N/A   Overcast
7:55 PM 35.6 °F 30.7 °F 33.8 °F 93% 30.32 in 1.0 mi North 5.8 mph - N/A   Overcast
8:15 PM 35.6 °F 31.7 °F 33.8 °F 93% 30.32 in 0.5 mi North 4.6 mph - N/A Fog Fog
8:35 PM 35.6 °F 31.7 °F 33.8 °F 93% 30.32 in 0.5 mi North 4.6 mph - N/A Fog Fog
8:55 PM 33.8 °F 27.0 °F 33.8 °F 100% 30.33 in 0.2 mi NE 8.1 mph - N/A Fog Fog
9:15 PM 33.8 °F 29.6 °F 33.8 °F 100% 30.33 in 0.2 mi North 4.6 mph - N/A Fog Fog
9:35 PM 33.8 °F 29.6 °F 33.8 °F 100% 30.34 in 0.2 mi NNE 4.6 mph - N/A Fog Fog
9:55 PM 33.8 °F 29.6 °F 33.8 °F 100% 30.34 in 0.2 mi NNE 4.6 mph - N/A Fog Fog
10:15 PM 33.8 °F 29.6 °F 32.0 °F 93% 30.34 in 0.2 mi North 4.6 mph - N/A Fog Fog
10:35 PM 33.8 °F 27.7 °F 32.0 °F 93% 30.34 in 0.2 mi North 6.9 mph - N/A Fog Fog
10:55 PM 32.0 °F 25.6 °F 32.0 °F 100% 30.34 in 0.5 mi North 6.9 mph - N/A Fog Fog
11:15 PM 32.0 °F 23.6 °F 32.0 °F 100% 30.34 in 1.0 mi NE 10.4 mph - N/A   Overcast
11:35 PM 32.0 °F 24.2 °F 32.0 °F 100% 30.34 in 0.5 mi NNE 9.2 mph - N/A Fog Fog
11:55 PM 32.0 °F 25.6 °F 32.0 °F 100% 30.34 in 0.8 mi NE 6.9 mph - N/A   Overcast